User: anonymous   Login
Location: Hopkins Observatory
(42.6965°N, 73.1843°W)
Time: 05:26:46
(UTC-05:00)
Language:

UOSAT-12 - Orbit

View from above orbital plane
View from above orbital plane
View from above satellite
View from above satellite

Ground track
Ground track

The orbit data is extracted from the following two-line orbital elements,

1 25693U 99021A   17321.69936863  .00000011  00000-0  20462-4 0  9990
2 25693  64.5570  12.5391 0045228 291.7959  67.8336 14.80769171  2894
Epoch (UTC): 17 November 2017 16:47:05
Eccentricity: 0.0045228
inclination: 64.5570°
perigee height: 595 km
apogee height: 658 km
right ascension of ascending node: 12.5391°
argument of perigee: 291.7959°
revolutions per day: 14.80769171
mean anomaly at epoch: 67.8336°
orbit number at epoch: 289

The dashed part of the orbit path shows where the satellite is in the earth's shadow,  

DLR